Location: Bushrod
(6.3500°N, 10.7833°W)
Time: 00:14:35
(UTC+00:00)

NOAA 12 - Pass Details

Date: 17 September 2019
Orbit: 796 x 815 km, 98.5° (Epoch: 15 October)

Event Time Altitude Azimuth Distance (km) Brightness Sun altitude
Rises 18:50:36 0° 163° (SSE) 3,302 7.1 -3.0°
Reaches altitude 10° 18:52:57 10° 160° (SSE) 2,369 6.3 -3.6°
Maximum altitude 18:58:09 69° 77° (ENE) 851 4.1 -4.9°
Drops below altitude 10° 19:03:19 10° 355° (N) 2,358 6.6 -6.1°
Sets 19:05:39 0° 353° (N) 3,286 7.4 -6.7°
